Regional Weather Roundup
Issued by NWS Charleston, WV

Home | Current Version | Previous Version | Text Only | Print | Product List | Glossary On
Versions: 1 2 3 4 5 6 7 8 9 10 11 12 13 14 15 16 17 18 19 20 21 22 23 24 25 26 27 28 29 30 31 32 33 34 35 36 37 38 39 40 41 42 43 44 45 46 47 48 49 50
000
ASUS41 KRLX 062110
RWRRLX
West Virginia Regional Weather Roundup
National Weather Service Charleston WV
400 PM EST FRI MAR 06 2015

Note: "fair" indicates few or no clouds below 12,000 feet with no
significant weather and/or obstructions to visibility.

WVZ003-062200-
Northern Panhandle of West Virginia

CITY           SKY/WX    TMP DP  RH WIND       PRES   REMARKS
WHEELING       SUNNY     22  10  60 S5        30.37F
$$

WVZ009-062200-
Northwest West Virginia

CITY           SKY/WX    TMP DP  RH WIND       PRES   REMARKS
PARKERSBURG    PTSUNNY   21   8  57 SW8       30.47F
$$

WVZ006-062200-
Western West Virginia

CITY           SKY/WX    TMP DP  RH WIND       PRES   REMARKS
HUNTINGTON     SUNNY     25  15  66 VRB3      30.44F
$$

WVZ015-062200-
West Central West Virginia

CITY           SKY/WX    TMP DP  RH WIND       PRES   REMARKS
CHARLESTON     MOSUNNY   28  14  55 W3        30.42F
$$

WVZ022-031-062200-
North Central West Virginia

CITY           SKY/WX    TMP DP  RH WIND       PRES   REMARKS
CLARKSBURG     PTSUNNY  N/A N/A N/A W6        30.41F
MORGANTOWN     MOSUNNY   22  11  62 SW7       30.41F
$$

WVZ025-035-042-045-062200-
Southern West Virginia

CITY           SKY/WX    TMP DP  RH WIND       PRES   REMARKS
BECKLEY        SUNNY     30   8  39 W7        30.29F
LOGAN            N/A     28  12  50 CALM      30.34F
BLUEFIELD      SUNNY     32  16  51 W9        30.29R
LEWISBURG      SUNNY     28  16  61 SW5       30.32F
$$

WVZ047-062200-
Northern Mountains of West Virginia

CITY           SKY/WX    TMP DP  RH WIND       PRES   REMARKS
ELKINS         SUNNY     24  15  68 N7        30.33F
$$

WVZ052-062200-
Eastern Panhandle of West Virginia

CITY           SKY/WX    TMP DP  RH WIND       PRES   REMARKS
MARTINSBURG    SUNNY     26   3  37 E5        30.44F
PETERSBURG     SUNNY     29   8  39 CALM      30.38F
$$


USA.gov is the U.S. government's official web portal to all federal, state and local government web resources and services.